La Paz, Mexico

4:12 AM MDT on April 26, 2017 (GMT -0600)
Gen Manuel Marquez De Leon

Weather History for MMLP - February, 2013

Change the Weather History Date:

Friday, February 8, 2013

  Actual Average Record
Temperature  
Mean Temperature 69 °F -  
Max Temperature 84 °F 77 °F 86 °F (2011)
Min Temperature 54 °F 53 °F 39 °F (2008)
Cooling Degree Days 4    
Growing Degree Days 19 (Base 50)    
Moisture  
Dew Point 50 °F    
Average Humidity 56    
Maximum Humidity 94    
Minimum Humidity 20    
Precipitation  
Precipitation 0.00 in - - ()
Sea Level Pressure  
Sea Level Pressure 29.99 in    
Wind  
Wind Speed 6 mph ()    
Max Wind Speed 14 mph    
Max Gust Speed -    
Visibility 10.7 miles    
Events      
Averages and records for this station are not official NWS values.
T = Trace of Precipitation, MM = Missing Value Source: Averaged Metar Reports

Daily Weather History Graph

Daily Weather History Graph

Search for Another Location

Airport or City:

Trip Planner

Search our weather history database for the weather conditions in past years. The results will help you decide how hot, cold, wet, or windy it might be!

Date:

Astronomy

Feb. 08, 2013 Rise Set
Actual Time 6:58 AM MST 6:12 PM MST
Civil Twilight 6:35 AM MST 6:35 PM MST
Nautical Twilight 6:08 AM MST 7:02 PM MST
Astronomical Twilight 5:42 AM MST 7:29 PM MST
Moon 5:25 AM MST (2/8) 4:52 PM MST (2/8)
Length of Visible Light 12h 00m
Length of Day
11h 13m
Waning Crescent, 3% of the Moon is Illuminated
Feb 8
Waning Crescent
Feb 10
New
Feb 17
First Quarter
Feb 25
Full
Mar 4
Last Quarter

Hourly Weather History & Observations

Time (MST) Temp. Dew Point Humidity Pressure Visibility Wind Dir Wind Speed Gust Speed Precip Events Conditions
1:45 AM 62 °F 56 °F 75% 29.97 in 2 mi South 2.2 mph - -  
4:50 AM 56 °F 53 °F 86% 29.97 in 2 mi South 4.5 mph - -  
5:57 AM 51.8 °F 50.0 °F 94% 29.99 in 10.0 mi South 4.6 mph - N/A   Scattered Clouds
6:49 AM 51.8 °F 50.0 °F 94% 30.00 in 10.0 mi East 6.9 mph - N/A   Partly Cloudy
7:41 AM 53.6 °F 51.8 °F 94% 30.06 in 10.0 mi South 11.5 mph - N/A   Partly Cloudy
7:50 AM 58 °F 54 °F 81% 30.01 in 12 mi South 2.2 mph - -  
8:47 AM 59.0 °F 53.6 °F 82% 30.03 in 10.0 mi South 13.8 mph - N/A   Partly Cloudy
9:47 AM 64.4 °F 51.8 °F 64% 30.03 in 10.0 mi South 10.4 mph - N/A   Partly Cloudy
10:47 AM 69.8 °F 46.4 °F 43% 30.08 in 10.0 mi South 8.1 mph - N/A   Clear
10:50 AM 73 °F 51 °F 34% 30.03 in 19 mi South 8.9 mph - -  
11:41 AM 73.4 °F 46.4 °F 38% 30.02 in 10.0 mi South 5.8 mph - N/A   Clear
12:44 PM 77.0 °F 42.8 °F 29% 29.99 in 13.0 mi SW 9.2 mph - N/A   Clear
1:50 PM 83 °F 48 °F 20% 29.95 in 19 mi South 8.9 mph - -  
1:50 PM 78.8 °F 41.0 °F 26% 30.02 in 13.0 mi West 8.1 mph - N/A   Clear
2:40 PM 80.6 °F 42.8 °F 26% 29.94 in 13.0 mi SW 8.1 mph - N/A   Partly Cloudy
3:40 PM 80.6 °F 46.4 °F 30% 29.92 in 13.0 mi SW 4.6 mph - N/A   Clear
4:48 PM 78.8 °F 44.6 °F 30% 30.01 in 10.0 mi SW 9.2 mph - N/A   Clear
4:50 PM 83 °F 51 °F 23% 29.90 in 19 mi South 4.5 mph - -  
5:46 PM 77.0 °F 48.2 °F 36% 29.92 in 10.0 mi SW 11.5 mph - N/A   Clear
6:40 PM 71.6 °F 51.8 °F 50% 29.93 in 10.0 mi SW 9.2 mph - N/A   Clear
7:47 PM 66.2 °F 53.6 °F 64% 30.05 in 10.0 mi South 9.2 mph - N/A   Clear
7:50 PM 70 °F 56 °F 52% 29.92 in 2 mi South 8.9 mph - -  
8:52 PM 62.6 °F 53.6 °F 72% 29.96 in 10.0 mi South 9.2 mph - N/A   Clear
9:50 PM 62.6 °F 55.4 °F 77% 29.96 in 10.0 mi SSE 9.2 mph - N/A   Clear
10:40 PM 60.8 °F 55.4 °F 82% 30.09 in 10.0 mi South 11.5 mph - N/A   Clear